Regional Weather Roundup
Issued by NWS

Home | Current Version | Previous Version | Text Only | Print | Product List | Glossary On
Versions: 1 2 3 4 5 6 7 8 9 10 11 12 13 14 15 16 17 18 19 20 21 22 23 24 25 26 27 28 29 30 31 32 33 34 35 36 37 38 39 40 41 42 43 44 45 46 47 48 49 50
371
ASUS44 KLIX 191305
RWRLA
LOUISIANA WEATHER ROUNDUP
NATIONAL WEATHER SERVICE NEW ORLEANS LA
700 AM CST FRI DEC 19 2014

NOTE: "FAIR" INDICATES FEW OR NO CLOUDS BELOW 12,000 FEET WITH NO
      SIGNIFICANT WEATHER AND/OR OBSTRUCTIONS TO VISIBILITY.
      SKY/WX - SKY CONDITION AND SIGNIFICANT WEATHER.
      TMP - AIR TEMPERATURE.    DP   - DEWPOINT TEMPERATURE.
      RH  - RELATIVE HUMIDITY.  PRES - PRESSURE.
      HX  - HEAT INDEX.         WCI  - WIND CHILL INDEX.

*  THESE STATIONS ARE NOT NWS OR FAA STATIONS AND ARE NOT UNDER
   NWS QUALITY CONTROL.

LAZ040-048-061>063-065-066-069-191400-
SOUTHEAST LOUISIANA

CITY           SKY/WX    TMP DP  RH WIND       PRES   REMARKS
N.O. AUDUBON     N/A     60  52  75 MISG        N/A
N.O. INTL ARPT CLOUDY    57  51  80 NE8       30.12R
N.O. LAKEFRONT CLOUDY    58  51  78 E12       30.13R
N.O. DOWNTOWN* CLOUDY    57  48  72 NE7       30.12R
SLIDELL        HVY RAIN  54  52  93 N8        30.13R FOG
BATON ROUGE    HVY RAIN  54  53  97 E3        30.15R FOG
BOOTHVILLE     CLOUDY    61  58  90 E8        30.09R
BELLE CHASSE   LGT RAIN  56  54  93 NE7       30.11R
BOGALUSA*      TSTM      52  49  89 NE9       30.13F
GALLIANO*      CLOUDY    61  59  94 MISG      30.09R
NEW ROADS*     LGT RAIN  54  53  97 NE5       30.13S
GONZALES*      CLOUDY    55  55 100 N6        30.14R
HAMMOND*       NOT AVBL
HOUMA*         CLOUDY    57  55  94 N7        30.10R
PORT FOURCHON* PTSUNNY   64  61  88 NE8       30.10R

$$

LAZ041-044-053-054-191400-
SOUTHWEST LOUISIANA

CITY           SKY/WX    TMP DP  RH WIND       PRES   REMARKS
LAKE CHARLES   LGT RAIN  58  56  93 MISG      30.05R
LAFAYETTE      CLOUDY    56  32  40 E6        30.09F
PATTERSON      CLOUDY    57  55  94 N14       30.12R
SALT POINT       N/A     62  58  86 N13G21    30.09R
NEW IBERIA     CLOUDY    57  54  89 NE12      30.10F
CHENAULT AIRPK LGT RAIN  55  55 100 E12       30.05R

$$

LAZ027-028-191400-
CENTRAL LOUISIANA

CITY           SKY/WX    TMP DP  RH WIND       PRES   REMARKS
FORT POLK      LGT RAIN  51  51  97 E9        30.06F FOG
ALEXANDRIA INT LGT RAIN  52  51  97 N7        30.09
ALEXANDRIA     LGT RAIN  51  50  96 VRB3      30.11F

$$

LAZ001-002-191400-
NORTHWEST LOUISIANA

CITY           SKY/WX    TMP DP  RH WIND       PRES   REMARKS
SHREVEPORT     CLOUDY    49  46  90 N8        30.14R
BARKSDALE AFB  NOT AVBL
DTN SHREVEPORT CLOUDY    48  44  86 N8        30.14R

$$

LAZ014-016-191400-
NORTHEAST LOUISIANA

CITY           SKY/WX    TMP DP  RH WIND       PRES   REMARKS
MONROE         CLOUDY    47  44  90 NE8       30.18R
TALLULAH       CLOUDY    50  42  74 NE5       30.17R

$$




USA.gov is the U.S. government's official web portal to all federal, state and local government web resources and services.